Time,TemperatureF,DewpointF,PressureIn,WindDirection,WindDirectionDegrees,WindSpeedMPH,WindSpeedGustMPH,Humidity,HourlyPrecipIn,Conditions,Clouds,dailyrainin,SoftwareType,DateUTC
2013-07-05 00:01:00,74.9,74.9,30.14,NNW,328,7.2,8.0,100,0.00,,FEW140,0.00,VWS V14.01,2013-07-05 04:01:00,
2013-07-05 00:03:00,75.0,75.0,30.14,North,352,4.5,7.2,100,0.00,,FEW140,0.00,VWS V14.01,2013-07-05 04:03:00,
2013-07-05 00:05:00,75.0,75.0,30.14,NW,309,4.2,6.5,100,0.00,,FEW140,0.00,VWS V14.01,2013-07-05 04:05:00,
2013-07-05 00:11:00,74.8,74.8,30.14,NNW,340,3.6,6.4,100,0.00,,FEW140,0.00,VWS V14.01,2013-07-05 04:11:00,
2013-07-05 00:13:00,74.8,74.8,30.14,WSW,256,5.5,9.0,100,0.00,,FEW140,0.00,VWS V14.01,2013-07-05 04:13:00,
2013-07-05 00:19:00,74.8,74.8,30.14,WSW,253,3.9,8.6,100,0.00,,FEW140,0.00,VWS V14.01,2013-07-05 04:19:00,
2013-07-05 00:25:00,74.8,74.8,30.14,West,264,4.3,8.2,100,0.00,,FEW140,0.00,VWS V14.01,2013-07-05 04:25:00,
2013-07-05 00:31:00,74.8,74.8,30.14,North,359,6.5,7.8,100,0.00,,FEW140,0.00,VWS V14.01,2013-07-05 04:31:00,
2013-07-05 00:33:00,74.8,74.8,30.14,WSW,252,5.7,7.8,100,0.00,,FEW140,0.00,VWS V14.01,2013-07-05 04:33:00,
2013-07-05 00:39:00,74.7,74.7,30.14,WSW,257,6.2,7.0,100,0.00,,FEW140,0.00,VWS V14.01,2013-07-05 04:39:00,
2013-07-05 00:45:00,74.5,74.5,30.14,NNW,345,4.4,7.3,100,0.00,,FEW140,0.00,VWS V14.01,2013-07-05 04:45:00,
2013-07-05 00:51:00,74.5,74.5,30.14,West,269,5.1,8.0,100,0.00,,FEW140,0.00,VWS V14.01,2013-07-05 04:51:00,
2013-07-05 00:57:00,74.4,74.4,30.14,NW,311,6.9,8.2,100,0.00,,FEW140,0.00,VWS V14.01,2013-07-05 04:57:00,
2013-07-05 01:03:00,74.4,74.4,30.14,WNW,294,4.8,7.7,100,0.00,,FEW120,0.00,VWS V14.01,2013-07-05 05:03:00,
2013-07-05 01:09:00,74.6,74.6,30.14,WNW,284,5.8,7.7,100,0.00,,FEW120,0.00,VWS V14.01,2013-07-05 05:09:00,
2013-07-05 01:15:00,74.4,74.4,30.14,North,4,6.5,8.2,100,0.00,,FEW120,0.00,VWS V14.01,2013-07-05 05:15:00,
2013-07-05 01:21:00,74.4,74.4,30.14,NNE,32,3.0,10.7,100,0.00,,FEW120,0.00,VWS V14.01,2013-07-05 05:21:00,
2013-07-05 01:27:00,74.4,74.4,30.14,NW,316,5.3,7.5,100,0.00,,FEW120,0.00,VWS V14.01,2013-07-05 05:27:00,
2013-07-05 01:33:00,74.3,74.3,30.14,West,266,3.7,6.1,100,0.00,,FEW120,0.00,VWS V14.01,2013-07-05 05:33:00,
2013-07-05 01:39:00,74.4,74.4,30.14,WNW,287,5.6,10.8,100,0.00,,FEW120,0.00,VWS V14.01,2013-07-05 05:39:00,
2013-07-05 01:45:00,74.4,74.4,30.14,WNW,294,3.9,7.6,100,0.00,,FEW120,0.00,VWS V14.01,2013-07-05 05:45:00,
2013-07-05 01:51:00,74.4,74.4,30.14,NW,304,4.7,7.0,100,0.00,,FEW120,0.00,VWS V14.01,2013-07-05 05:51:00,
2013-07-05 01:57:00,74.2,74.2,30.14,NW,322,8.0,8.5,100,0.00,,FEW120,0.00,VWS V14.01,2013-07-05 05:57:00,
2013-07-05 02:03:00,74.2,74.2,30.14,North,349,6.5,8.5,100,0.00,,FEW140,0.00,VWS V14.01,2013-07-05 06:03:00,
2013-07-05 02:09:00,74.2,74.2,30.14,NNW,332,5.2,7.0,100,0.00,,FEW140,0.00,VWS V14.01,2013-07-05 06:09:00,
2013-07-05 02:15:00,74.1,74.1,30.14,West,264,5.7,8.3,100,0.00,,FEW140,0.00,VWS V14.01,2013-07-05 06:15:00,
2013-07-05 02:21:00,74.1,74.1,30.14,NNW,347,6.6,6.6,100,0.00,,FEW140,0.00,VWS V14.01,2013-07-05 06:21:00,
2013-07-05 02:27:00,74.0,74.0,30.14,NNW,340,5.0,6.8,100,0.00,,FEW140,0.00,VWS V14.01,2013-07-05 06:27:00,
2013-07-05 02:33:00,73.8,73.8,30.14,SW,233,2.9,6.0,100,0.00,,FEW140,0.00,VWS V14.01,2013-07-05 06:33:00,
2013-07-05 02:39:00,73.7,73.7,30.13,North,350,5.1,7.2,100,0.00,,FEW140,0.00,VWS V14.01,2013-07-05 06:39:00,
2013-07-05 02:45:00,73.7,73.7,30.13,NNW,336,4.4,6.2,100,0.00,,FEW140,0.00,VWS V14.01,2013-07-05 06:45:00,
2013-07-05 02:51:00,73.8,73.8,30.13,NW,316,4.6,5.8,100,0.00,,FEW140,0.00,VWS V14.01,2013-07-05 06:51:00,
2013-07-05 02:57:00,73.7,73.7,30.13,WNW,284,5.4,9.1,100,0.00,,FEW140,0.00,VWS V14.01,2013-07-05 06:57:00,
2013-07-05 03:03:00,73.8,73.8,30.13,West,276,5.0,8.8,100,0.00,,CLR,0.00,VWS V14.01,2013-07-05 07:03:00,
2013-07-05 03:09:00,73.6,73.6,30.13,WNW,301,5.4,8.9,100,0.00,,CLR,0.00,VWS V14.01,2013-07-05 07:09:00,
2013-07-05 03:15:00,73.6,73.6,30.14,NW,309,4.5,5.4,100,0.00,,CLR,0.00,VWS V14.01,2013-07-05 07:15:00,
2013-07-05 03:21:00,73.4,73.4,30.13,West,281,4.4,7.2,100,0.00,,CLR,0.00,VWS V14.01,2013-07-05 07:21:00,
2013-07-05 03:27:00,73.3,73.3,30.13,NE,46,3.4,5.2,100,0.00,,CLR,0.00,VWS V14.01,2013-07-05 07:27:00,
2013-07-05 03:33:00,73.3,73.3,30.13,West,267,7.3,9.8,100,0.00,,CLR,0.00,VWS V14.01,2013-07-05 07:33:00,
2013-07-05 03:39:00,73.3,73.3,30.13,West,259,4.7,10.3,100,0.00,,CLR,0.00,VWS V14.01,2013-07-05 07:39:00,
2013-07-05 03:45:00,73.2,73.2,30.13,WNW,300,6.5,9.3,100,0.00,,CLR,0.00,VWS V14.01,2013-07-05 07:45:00,
2013-07-05 03:51:00,73.2,73.2,30.13,NW,304,4.1,6.0,100,0.00,,CLR,0.00,VWS V14.01,2013-07-05 07:51:00,
2013-07-05 03:57:00,73.3,73.3,30.14,West,267,3.4,7.2,100,0.00,,CLR,0.00,VWS V14.01,2013-07-05 07:57:00,
2013-07-05 04:03:00,73.2,73.2,30.14,WNW,285,5.2,6.7,100,0.00,,CLR,0.00,VWS V14.01,2013-07-05 08:03:00,
2013-07-05 04:09:00,73.2,73.2,30.14,NW,308,5.5,7.0,100,0.00,,CLR,0.00,VWS V14.01,2013-07-05 08:09:00,
2013-07-05 04:15:00,73.2,73.2,30.14,WNW,290,6.0,8.8,100,0.00,,CLR,0.00,VWS V14.01,2013-07-05 08:15:00,
2013-07-05 04:21:00,73.1,73.1,30.14,NNW,329,6.4,6.8,100,0.00,,CLR,0.00,VWS V14.01,2013-07-05 08:21:00,
2013-07-05 04:27:00,73.1,73.1,30.14,NW,325,4.2,6.3,100,0.00,,CLR,0.00,VWS V14.01,2013-07-05 08:27:00,
2013-07-05 04:33:00,73.1,73.1,30.14,NW,315,4.9,9.2,100,0.00,,CLR,0.00,VWS V14.01,2013-07-05 08:33:00,
2013-07-05 04:39:00,73.2,73.2,30.14,NW,321,3.9,6.4,100,0.00,,CLR,0.00,VWS V14.01,2013-07-05 08:39:00,
2013-07-05 04:45:00,73.1,73.1,30.14,WSW,256,5.8,7.5,100,0.00,,CLR,0.00,VWS V14.01,2013-07-05 08:45:00,
2013-07-05 04:51:00,73.1,73.1,30.14,West,273,5.3,7.0,100,0.00,,CLR,0.00,VWS V14.01,2013-07-05 08:51:00,
2013-07-05 04:59:00,72.9,72.9,30.14,NNW,339,3.8,6.1,100,0.00,,CLR,0.00,VWS V14.01,2013-07-05 08:59:00,
2013-07-05 05:05:00,72.9,72.9,30.15,West,274,3.7,9.0,100,0.00,,CLR,0.00,VWS V14.01,2013-07-05 09:05:00,
2013-07-05 05:11:00,73.0,73.0,30.14,West,262,9.0,9.0,100,0.00,,CLR,0.00,VWS V14.01,2013-07-05 09:11:00,
2013-07-05 05:19:00,73.0,73.0,30.15,WNW,300,6.7,6.7,100,0.00,,CLR,0.00,VWS V14.01,2013-07-05 09:19:00,
2013-07-05 05:25:00,72.9,72.9,30.15,WSW,255,3.6,5.2,100,0.00,,CLR,0.00,VWS V14.01,2013-07-05 09:25:00,
2013-07-05 05:31:00,73.0,73.0,30.15,NW,316,3.5,6.2,100,0.00,,CLR,0.00,VWS V14.01,2013-07-05 09:31:00,
2013-07-05 05:37:00,72.8,72.8,30.15,South,172,3.7,6.2,100,0.00,,CLR,0.00,VWS V14.01,2013-07-05 09:37:00,
2013-07-05 05:43:00,73.0,73.0,30.15,WNW,292,5.4,7.6,100,0.00,,CLR,0.00,VWS V14.01,2013-07-05 09:43:00,
2013-07-05 05:49:00,72.9,72.9,30.16,NW,312,2.5,7.5,100,0.00,,CLR,0.00,VWS V14.01,2013-07-05 09:49:00,
2013-07-05 05:55:00,73.1,73.1,30.16,West,262,3.0,6.4,100,0.00,,CLR,0.00,VWS V14.01,2013-07-05 09:55:00,
2013-07-05 06:01:00,73.3,73.3,30.16,South,173,5.2,5.5,100,0.00,,CLR,0.00,VWS V14.01,2013-07-05 10:01:00,
2013-07-05 06:07:00,73.4,73.4,30.16,South,188,3.7,6.3,100,0.00,,FEW300,0.00,VWS V14.01,2013-07-05 10:07:00,
2013-07-05 06:13:00,73.6,73.6,30.16,NW,316,4.8,7.3,100,0.00,,FEW300,0.00,VWS V14.01,2013-07-05 10:13:00,
2013-07-05 06:19:00,73.7,73.7,30.16,NW,314,4.4,6.7,100,0.00,,FEW300,0.00,VWS V14.01,2013-07-05 10:19:00,
2013-07-05 06:25:00,73.9,73.9,30.16,West,264,6.6,8.5,100,0.00,,FEW300,0.00,VWS V14.01,2013-07-05 10:25:00,
2013-07-05 06:31:00,74.1,74.1,30.16,WNW,290,4.4,5.7,100,0.00,,FEW300,0.00,VWS V14.01,2013-07-05 10:31:00,
2013-07-05 06:37:00,74.1,74.1,30.16,WNW,284,3.8,8.0,100,0.00,,FEW300,0.00,VWS V14.01,2013-07-05 10:37:00,
2013-07-05 06:43:00,74.4,74.4,30.16,WNW,292,4.5,5.5,100,0.00,,FEW300,0.00,VWS V14.01,2013-07-05 10:43:00,
2013-07-05 06:51:00,74.7,74.7,30.16,NW,312,3.6,5.3,100,0.00,,FEW300,0.00,VWS V14.01,2013-07-05 10:51:00,
2013-07-05 06:57:00,75.0,75.0,30.17,NE,49,4.9,7.0,100,0.00,,FEW300,0.00,VWS V14.01,2013-07-05 10:57:00,
2013-07-05 07:03:00,75.3,75.3,30.17,WNW,301,3.7,6.4,100,0.00,,CLR,0.00,VWS V14.01,2013-07-05 11:03:00,
2013-07-05 07:11:00,75.7,75.7,30.17,North,4,4.6,5.0,100,0.00,,CLR,0.00,VWS V14.01,2013-07-05 11:11:00,
2013-07-05 07:21:00,76.1,76.1,30.17,West,281,3.9,6.4,100,0.00,,CLR,0.00,VWS V14.01,2013-07-05 11:21:00,
2013-07-05 07:29:00,76.4,76.4,30.17,WNW,298,4.2,5.5,100,0.00,,CLR,0.00,VWS V14.01,2013-07-05 11:29:00,
2013-07-05 07:35:00,76.7,76.7,30.17,WSW,243,3.8,6.8,100,0.00,,CLR,0.00,VWS V14.01,2013-07-05 11:35:00,
2013-07-05 07:41:00,77.1,77.1,30.17,SSW,193,4.0,6.7,100,0.00,,CLR,0.00,VWS V14.01,2013-07-05 11:41:00,
2013-07-05 07:47:00,77.2,77.1,30.17,NNE,25,4.8,12.1,100,0.00,,CLR,0.00,VWS V14.01,2013-07-05 11:47:00,
2013-07-05 07:53:00,77.3,77.3,30.17,West,278,4.8,6.0,100,0.00,,CLR,0.00,VWS V14.01,2013-07-05 11:53:00,
2013-07-05 08:01:00,78.1,77.6,30.17,NW,325,4.9,5.6,98,0.00,,CLR,0.00,VWS V14.01,2013-07-05 12:01:00,
2013-07-05 08:09:00,78.2,77.7,30.17,WSW,246,6.0,6.1,98,0.00,,CLR,0.00,VWS V14.01,2013-07-05 12:09:00,
2013-07-05 08:15:00,78.8,78.0,30.17,NW,312,5.5,14.1,97,0.00,,CLR,0.00,VWS V14.01,2013-07-05 12:15:00,
2013-07-05 08:21:00,79.2,78.2,30.17,WSW,243,5.0,7.0,97,0.00,,CLR,0.00,VWS V14.01,2013-07-05 12:21:00,
2013-07-05 08:29:00,79.5,78.2,30.17,West,273,3.9,7.2,96,0.00,,CLR,0.00,VWS V14.01,2013-07-05 12:29:00,
2013-07-05 08:35:00,80.2,78.8,30.17,SSW,207,6.3,7.6,95,0.00,,CLR,0.00,VWS V14.01,2013-07-05 12:35:00,
2013-07-05 08:41:00,80.4,78.9,30.17,NNW,328,3.1,5.7,95,0.00,,CLR,0.00,VWS V14.01,2013-07-05 12:41:00,
2013-07-05 08:47:00,81.4,79.5,30.17,WSW,257,7.5,8.0,94,0.00,,CLR,0.00,VWS V14.01,2013-07-05 12:47:00,
2013-07-05 08:53:00,83.4,79.5,30.16,West,271,4.6,4.9,88,0.00,,CLR,0.00,VWS V14.01,2013-07-05 12:53:00,
2013-07-05 08:59:00,83.5,78.9,30.16,NNW,333,4.5,4.8,86,0.00,,CLR,0.00,VWS V14.01,2013-07-05 12:59:00,
2013-07-05 09:05:00,84.4,78.8,30.16,West,278,3.2,5.5,83,0.00,,CLR,0.00,VWS V14.01,2013-07-05 13:05:00,
2013-07-05 09:11:00,83.9,79.8,30.16,NE,41,2.5,5.9,87,0.00,,CLR,0.00,VWS V14.01,2013-07-05 13:11:00,
2013-07-05 09:17:00,84.8,78.2,30.16,WSW,248,3.1,4.2,81,0.00,,CLR,0.00,VWS V14.01,2013-07-05 13:17:00,
2013-07-05 09:23:00,85.7,78.7,30.16,West,276,5.9,8.3,80,0.00,,CLR,0.00,VWS V14.01,2013-07-05 13:23:00,
2013-07-05 09:29:00,86.4,78.7,30.16,West,259,3.9,6.2,78,0.00,,CLR,0.00,VWS V14.01,2013-07-05 13:29:00,
2013-07-05 09:39:00,87.1,77.7,30.15,West,277,2.5,5.2,74,0.00,,CLR,0.00,VWS V14.01,2013-07-05 13:39:00,
2013-07-05 09:45:00,86.6,78.1,30.15,NNW,343,3.5,5.7,76,0.00,,CLR,0.00,VWS V14.01,2013-07-05 13:45:00,
2013-07-05 09:53:00,87.4,78.3,30.15,SW,232,2.5,3.9,75,0.00,,CLR,0.00,VWS V14.01,2013-07-05 13:53:00,
2013-07-05 10:03:00,87.6,77.5,30.15,WSW,256,3.1,8.5,72,0.00,,FEW280,0.00,VWS V14.01,2013-07-05 14:03:00,
2013-07-05 10:09:00,87.4,77.6,30.15,West,260,2.5,6.4,73,0.00,,FEW280,0.00,VWS V14.01,2013-07-05 14:09:00,
2013-07-05 10:17:00,88.0,77.1,30.15,SW,235,4.7,8.3,70,0.00,,FEW280,0.00,VWS V14.01,2013-07-05 14:17:00,
2013-07-05 10:28:00,90.0,77.3,30.15,WSW,250,4.2,6.0,66,0.00,,FEW280,0.00,VWS V14.01,2013-07-05 14:28:00,
2013-07-05 10:33:00,90.7,75.4,30.15,West,259,4.7,6.2,61,0.00,,FEW280,0.00,VWS V14.01,2013-07-05 14:33:00,
2013-07-05 10:39:00,90.4,78.8,30.15,East,97,2.5,3.9,69,0.00,,FEW280,0.00,VWS V14.01,2013-07-05 14:39:00,
2013-07-05 10:45:00,91.3,77.1,30.15,WSW,255,2.5,2.9,63,0.00,,FEW280,0.00,VWS V14.01,2013-07-05 14:45:00,
2013-07-05 10:51:00,91.8,75.1,30.15,WNW,288,6.4,6.6,58,0.00,,FEW280,0.00,VWS V14.01,2013-07-05 14:51:00,
2013-07-05 10:57:00,91.3,77.4,30.15,WNW,298,3.9,5.9,64,0.00,,FEW280,0.00,VWS V14.01,2013-07-05 14:57:00,
2013-07-05 11:03:00,91.9,75.5,30.15,SW,222,2.5,6.5,59,0.00,,SCT280,0.00,VWS V14.01,2013-07-05 15:03:00,
2013-07-05 11:09:00,92.2,77.6,30.15,WNW,288,4.2,4.2,63,0.00,,SCT280,0.00,VWS V14.01,2013-07-05 15:09:00,
2013-07-05 11:15:00,90.3,77.1,30.15,WSW,239,5.0,5.2,65,0.00,,SCT280,0.00,VWS V14.01,2013-07-05 15:15:00,
2013-07-05 11:21:00,91.3,75.3,30.15,SW,232,2.5,4.7,60,0.00,,SCT280,0.00,VWS V14.01,2013-07-05 15:21:00,
2013-07-05 11:27:00,91.7,78.2,30.15,NW,309,2.7,5.3,65,0.00,,SCT280,0.00,VWS V14.01,2013-07-05 15:27:00,
2013-07-05 11:33:00,90.5,76.3,30.15,NW,305,4.3,6.2,63,0.00,,SCT280,0.00,VWS V14.01,2013-07-05 15:33:00,
2013-07-05 11:39:00,89.6,73.3,30.15,NNW,345,4.6,6.1,59,0.00,,SCT280,0.00,VWS V14.01,2013-07-05 15:39:00,
2013-07-05 11:45:00,90.9,74.1,30.14,NW,321,3.4,6.0,58,0.00,,SCT280,0.00,VWS V14.01,2013-07-05 15:45:00,
2013-07-05 11:51:00,93.3,72.4,30.14,West,277,4.7,9.0,51,0.00,,SCT280,0.00,VWS V14.01,2013-07-05 15:51:00,
2013-07-05 11:57:00,90.8,73.5,30.14,SSW,197,2.5,5.7,57,0.00,,SCT280,0.00,VWS V14.01,2013-07-05 15:57:00,
2013-07-05 12:03:00,90.6,74.7,30.14,North,7,3.7,5.3,60,0.00,,FEW044,0.00,VWS V14.01,2013-07-05 16:03:00,
2013-07-05 12:09:00,91.1,71.4,30.14,North,6,3.8,4.6,53,0.00,,FEW044,0.00,VWS V14.01,2013-07-05 16:09:00,
2013-07-05 12:15:00,89.1,72.4,30.13,NE,55,4.5,6.4,58,0.00,,FEW044,0.00,VWS V14.01,2013-07-05 16:15:00,
2013-07-05 12:21:00,92.1,75.9,30.13,West,269,3.6,4.4,59,0.00,,FEW044,0.00,VWS V14.01,2013-07-05 16:21:00,
2013-07-05 12:27:00,92.3,72.7,30.13,NW,319,3.5,7.3,53,0.00,,FEW044,0.00,VWS V14.01,2013-07-05 16:27:00,
2013-07-05 12:33:00,94.2,71.9,30.13,WSW,248,4.7,7.7,49,0.00,,FEW044,0.00,VWS V14.01,2013-07-05 16:33:00,
2013-07-05 12:39:00,93.1,71.1,30.13,SW,236,7.3,8.3,49,0.00,,FEW044,0.00,VWS V14.01,2013-07-05 16:39:00,
2013-07-05 12:45:00,93.2,69.9,30.13,WNW,292,4.0,6.3,47,0.00,,FEW044,0.00,VWS V14.01,2013-07-05 16:45:00,
2013-07-05 12:51:00,93.2,71.2,30.13,North,350,8.1,8.1,49,0.00,,FEW044,0.00,VWS V14.01,2013-07-05 16:51:00,
2013-07-05 12:57:00,92.7,69.5,30.13,WSW,243,5.7,6.7,47,0.00,,FEW044,0.00,VWS V14.01,2013-07-05 16:57:00,
2013-07-05 13:03:00,92.5,71.9,30.12,West,267,2.9,5.7,51,0.00,,SCT230,0.00,VWS V14.01,2013-07-05 17:03:00,
2013-07-05 13:09:00,94.2,71.5,30.12,WSW,242,2.5,6.4,48,0.00,,SCT230,0.00,VWS V14.01,2013-07-05 17:09:00,
2013-07-05 13:15:00,90.9,72.2,30.12,West,267,7.0,7.8,54,0.00,,SCT230,0.00,VWS V14.01,2013-07-05 17:15:00,
2013-07-05 13:21:00,91.7,70.4,30.12,West,266,5.8,7.7,50,0.00,,SCT230,0.00,VWS V14.01,2013-07-05 17:21:00,
2013-07-05 13:27:00,92.8,71.6,30.11,SW,222,4.2,7.0,50,0.00,,SCT230,0.00,VWS V14.01,2013-07-05 17:27:00,
2013-07-05 13:33:00,93.7,70.3,30.11,WSW,245,6.0,7.6,47,0.00,,SCT230,0.00,VWS V14.01,2013-07-05 17:33:00,
2013-07-05 13:39:00,91.5,69.0,30.11,WNW,290,7.7,8.3,48,0.00,,SCT230,0.00,VWS V14.01,2013-07-05 17:39:00,
2013-07-05 13:45:00,93.8,71.3,30.11,SSE,167,3.0,6.0,48,0.00,,SCT230,0.00,VWS V14.01,2013-07-05 17:45:00,
2013-07-05 13:51:00,91.8,70.7,30.11,NNE,24,7.3,10.3,50,0.00,,SCT230,0.00,VWS V14.01,2013-07-05 17:51:00,
2013-07-05 13:57:00,93.7,69.4,30.11,NNE,20,4.4,6.1,45,0.00,,SCT230,0.00,VWS V14.01,2013-07-05 17:57:00,
2013-07-05 14:03:00,93.9,70.1,30.11,East,80,2.8,7.8,46,0.00,,SCT230,0.00,VWS V14.01,2013-07-05 18:03:00,
2013-07-05 14:09:00,89.8,70.7,30.10,SW,214,2.5,7.6,54,0.00,,SCT230,0.00,VWS V14.01,2013-07-05 18:09:00,
2013-07-05 14:11:00,89.7,70.7,30.10,WSW,250,3.1,8.6,54,0.00,,SCT230,0.00,VWS V14.01,2013-07-05 18:11:00,
2013-07-05 14:17:00,92.1,70.2,30.10,North,354,2.5,4.8,49,0.00,,SCT230,0.00,VWS V14.01,2013-07-05 18:17:00,
2013-07-05 14:23:00,92.0,71.2,30.10,NNE,20,2.5,5.6,51,0.00,,SCT230,0.00,VWS V14.01,2013-07-05 18:23:00,
2013-07-05 14:29:00,92.5,71.3,30.10,West,259,3.1,7.5,50,0.00,,SCT230,0.00,VWS V14.01,2013-07-05 18:29:00,
2013-07-05 14:35:00,94.1,70.2,30.10,WNW,302,6.0,9.0,46,0.00,,SCT230,0.00,VWS V14.01,2013-07-05 18:35:00,
2013-07-05 14:41:00,91.0,71.5,30.10,West,277,4.7,6.0,53,0.00,,SCT230,0.00,VWS V14.01,2013-07-05 18:41:00,
2013-07-05 14:47:00,90.6,69.7,30.10,WNW,290,8.2,11.0,50,0.00,,SCT230,0.00,VWS V14.01,2013-07-05 18:47:00,
2013-07-05 14:53:00,91.6,70.1,30.10,SW,225,5.5,7.8,50,0.00,,SCT230,0.00,VWS V14.01,2013-07-05 18:53:00,
2013-07-05 14:59:00,89.6,71.1,30.10,West,262,5.4,5.4,55,0.00,,SCT230,0.00,VWS V14.01,2013-07-05 18:59:00,
2013-07-05 15:05:00,89.5,69.7,30.10,North,6,5.7,12.1,52,0.00,,SCT230,0.00,VWS V14.01,2013-07-05 19:05:00,
2013-07-05 15:11:00,88.8,73.2,30.09,NNE,28,3.7,5.7,60,0.00,,SCT230,0.00,VWS V14.01,2013-07-05 19:11:00,
2013-07-05 15:17:00,90.1,70.2,30.09,NW,319,3.7,10.7,52,0.00,,SCT230,0.00,VWS V14.01,2013-07-05 19:17:00,
2013-07-05 15:23:00,89.6,71.7,30.09,WSW,250,4.4,11.5,56,0.00,,SCT230,0.00,VWS V14.01,2013-07-05 19:23:00,
2013-07-05 15:29:00,90.1,69.7,30.09,North,359,6.5,11.0,51,0.00,,SCT230,0.00,VWS V14.01,2013-07-05 19:29:00,
2013-07-05 15:35:00,89.4,71.6,30.08,NW,311,4.1,7.8,56,0.00,,SCT230,0.00,VWS V14.01,2013-07-05 19:35:00,
2013-07-05 15:41:00,89.6,70.9,30.08,WNW,287,2.5,10.0,54,0.00,,SCT230,0.00,VWS V14.01,2013-07-05 19:41:00,
2013-07-05 15:47:00,90.0,70.7,30.08,WNW,288,5.7,14.9,53,0.00,,SCT230,0.00,VWS V14.01,2013-07-05 19:47:00,
2013-07-05 15:53:00,89.4,72.1,30.08,SW,226,3.0,4.1,57,0.00,,SCT230,0.00,VWS V14.01,2013-07-05 19:53:00,
2013-07-05 15:59:00,89.4,71.9,30.07,NNW,335,3.3,9.6,56,0.00,,SCT230,0.00,VWS V14.01,2013-07-05 19:59:00,
2013-07-05 16:05:00,89.6,72.7,30.07,NNW,330,5.2,13.0,58,0.00,,SCT230,0.00,VWS V14.01,2013-07-05 20:05:00,
2013-07-05 16:11:00,89.3,71.8,30.07,WSW,239,5.8,7.4,56,0.00,,SCT230,0.00,VWS V14.01,2013-07-05 20:11:00,
2013-07-05 16:17:00,89.1,72.2,30.07,NNE,15,6.5,8.5,58,0.00,,SCT230,0.00,VWS V14.01,2013-07-05 20:17:00,
2013-07-05 16:23:00,89.0,72.5,30.07,NW,314,3.7,7.7,58,0.00,,SCT230,0.00,VWS V14.01,2013-07-05 20:23:00,
2013-07-05 16:29:00,88.3,73.6,30.07,WSW,249,4.4,9.0,62,0.00,,SCT230,0.00,VWS V14.01,2013-07-05 20:29:00,
2013-07-05 16:35:00,89.2,73.9,30.07,NW,322,3.1,11.1,61,0.00,,SCT230,0.00,VWS V14.01,2013-07-05 20:35:00,
2013-07-05 16:41:00,89.0,73.9,30.07,West,263,6.0,9.5,61,0.00,,SCT230,0.00,VWS V14.01,2013-07-05 20:41:00,
2013-07-05 16:47:00,88.9,75.2,30.07,NNE,28,3.3,5.9,64,0.00,,SCT230,0.00,VWS V14.01,2013-07-05 20:47:00,
2013-07-05 16:53:00,88.8,74.8,30.07,NW,315,4.2,7.8,63,0.00,,SCT230,0.00,VWS V14.01,2013-07-05 20:53:00,
2013-07-05 16:59:00,88.7,75.1,30.07,North,6,3.8,7.1,64,0.00,,SCT230,0.00,VWS V14.01,2013-07-05 20:59:00,
2013-07-05 17:05:00,88.3,74.6,30.07,NW,309,7.4,9.4,64,0.00,,FEW055,0.00,VWS V14.01,2013-07-05 21:05:00,
2013-07-05 17:11:00,88.2,75.1,30.07,NNE,20,2.7,8.2,65,0.00,,FEW055,0.00,VWS V14.01,2013-07-05 21:11:00,
2013-07-05 17:17:00,88.1,75.1,30.07,West,274,8.2,9.9,66,0.00,,FEW055,0.00,VWS V14.01,2013-07-05 21:17:00,
2013-07-05 17:23:00,87.9,74.9,30.07,West,263,5.1,6.7,66,0.00,,FEW055,0.00,VWS V14.01,2013-07-05 21:23:00,
2013-07-05 17:29:00,87.5,75.2,30.07,North,357,3.3,8.7,67,0.00,,FEW055,0.00,VWS V14.01,2013-07-05 21:29:00,
2013-07-05 17:35:00,87.9,76.0,30.07,NNE,20,3.9,6.7,68,0.00,,FEW055,0.00,VWS V14.01,2013-07-05 21:35:00,
2013-07-05 17:41:00,87.8,75.4,30.06,WNW,292,3.6,6.6,67,0.00,,FEW055,0.00,VWS V14.01,2013-07-05 21:41:00,
2013-07-05 17:47:00,88.2,72.7,30.06,West,262,5.5,10.9,60,0.00,,FEW055,0.00,VWS V14.01,2013-07-05 21:47:00,
2013-07-05 17:53:00,87.9,73.2,30.06,ENE,69,4.5,11.3,62,0.00,,FEW055,0.00,VWS V14.01,2013-07-05 21:53:00,
2013-07-05 17:55:00,87.2,74.4,30.06,NW,314,3.3,5.3,66,0.00,,FEW055,0.00,VWS V14.01,2013-07-05 21:55:00,
2013-07-05 18:01:00,86.8,74.0,30.06,West,269,4.2,8.3,66,0.00,,FEW050,0.00,VWS V14.01,2013-07-05 22:01:00,
2013-07-05 18:07:00,86.4,73.9,30.06,North,354,3.4,6.7,66,0.00,,FEW050,0.00,VWS V14.01,2013-07-05 22:07:00,
2013-07-05 18:13:00,86.1,73.3,30.06,NW,312,3.2,11.7,66,0.00,,FEW050,0.00,VWS V14.01,2013-07-05 22:13:00,
2013-07-05 18:19:00,86.5,72.8,30.06,West,277,5.9,11.1,64,0.00,,FEW050,0.00,VWS V14.01,2013-07-05 22:19:00,
2013-07-05 18:25:00,86.3,73.1,30.06,NW,305,3.1,5.9,65,0.00,,FEW050,0.00,VWS V14.01,2013-07-05 22:25:00,
2013-07-05 18:31:00,85.6,73.8,30.06,North,4,6.2,6.5,68,0.00,,FEW050,0.00,VWS V14.01,2013-07-05 22:31:00,
2013-07-05 18:37:00,85.4,73.5,30.05,SSW,208,3.9,8.9,68,0.00,,FEW050,0.00,VWS V14.01,2013-07-05 22:37:00,
2013-07-05 18:43:00,85.3,73.6,30.06,WNW,295,6.2,7.7,68,0.00,,FEW050,0.00,VWS V14.01,2013-07-05 22:43:00,
2013-07-05 18:45:00,84.8,72.8,30.06,WNW,295,7.3,12.1,68,0.00,,FEW050,0.00,VWS V14.01,2013-07-05 22:45:00,
2013-07-05 18:51:00,84.5,73.2,30.06,West,273,6.7,7.3,69,0.00,,FEW050,0.00,VWS V14.01,2013-07-05 22:51:00,
2013-07-05 18:57:00,84.2,74.2,30.06,WNW,301,4.6,5.5,72,0.00,,FEW050,0.00,VWS V14.01,2013-07-05 22:57:00,
2013-07-05 19:03:00,84.1,74.7,30.06,West,271,7.0,8.3,73,0.00,,FEW055,0.00,VWS V14.01,2013-07-05 23:03:00,
2013-07-05 19:09:00,83.6,75.1,30.06,North,6,3.6,5.9,76,0.00,,FEW055,0.00,VWS V14.01,2013-07-05 23:09:00,
2013-07-05 19:15:00,83.4,75.1,30.06,WSW,240,6.7,10.8,76,0.00,,FEW055,0.00,VWS V14.01,2013-07-05 23:15:00,
2013-07-05 19:21:00,83.0,75.7,30.06,NW,318,3.6,7.0,79,0.00,,FEW055,0.00,VWS V14.01,2013-07-05 23:21:00,
2013-07-05 19:27:00,82.7,76.0,30.06,West,271,5.0,7.5,80,0.00,,FEW055,0.00,VWS V14.01,2013-07-05 23:27:00,
2013-07-05 19:33:00,82.5,76.0,30.05,North,356,4.2,12.8,81,0.00,,FEW055,0.00,VWS V14.01,2013-07-05 23:33:00,
2013-07-05 19:39:00,82.3,76.3,30.06,NNE,27,3.5,6.9,82,0.00,,FEW055,0.00,VWS V14.01,2013-07-05 23:39:00,
2013-07-05 19:45:00,81.9,76.5,30.06,WNW,283,5.9,8.6,84,0.00,,FEW055,0.00,VWS V14.01,2013-07-05 23:45:00,
2013-07-05 19:51:00,81.7,76.6,30.05,NE,35,3.4,6.3,84,0.00,,FEW055,0.00,VWS V14.01,2013-07-05 23:51:00,
2013-07-05 19:57:00,81.4,76.5,30.05,WNW,297,3.7,9.0,85,0.00,,FEW055,0.00,VWS V14.01,2013-07-05 23:57:00,
2013-07-05 20:03:00,81.1,76.5,30.05,SW,221,3.9,7.3,86,0.00,,SCT170,0.00,VWS V14.01,2013-07-06 00:03:00,
2013-07-05 20:09:00,80.6,76.7,30.05,West,264,4.8,6.4,88,0.00,,SCT170,0.00,VWS V14.01,2013-07-06 00:09:00,
2013-07-05 20:15:00,80.6,76.7,30.05,SW,229,6.4,6.5,88,0.00,,SCT170,0.00,VWS V14.01,2013-07-06 00:15:00,
2013-07-05 20:21:00,80.3,77.0,30.06,NW,312,5.5,8.5,90,0.00,,SCT170,0.00,VWS V14.01,2013-07-06 00:21:00,
2013-07-05 20:27:00,80.4,76.5,30.06,NNE,18,3.7,7.8,88,0.00,,SCT170,0.00,VWS V14.01,2013-07-06 00:27:00,
2013-07-05 20:33:00,80.1,76.6,30.06,WNW,284,4.5,4.9,89,0.00,,SCT170,0.00,VWS V14.01,2013-07-06 00:33:00,
2013-07-05 20:39:00,79.7,76.6,30.06,NNW,335,4.9,5.8,90,0.00,,SCT170,0.00,VWS V14.01,2013-07-06 00:39:00,
2013-07-05 20:45:00,79.6,76.5,30.06,North,359,6.3,9.1,90,0.00,,SCT170,0.00,VWS V14.01,2013-07-06 00:45:00,
2013-07-05 20:51:00,79.4,76.6,30.07,NNW,332,7.0,9.5,91,0.00,,SCT170,0.00,VWS V14.01,2013-07-06 00:51:00,
2013-07-05 20:57:00,79.4,76.9,30.07,WNW,294,4.1,5.8,92,0.00,,SCT170,0.00,VWS V14.01,2013-07-06 00:57:00,
2013-07-05 21:03:00,79.0,77.0,30.07,NNE,28,3.5,7.8,94,0.00,,SCT200,0.00,VWS V14.01,2013-07-06 01:03:00,
2013-07-05 21:09:00,78.9,77.0,30.07,ESE,104,2.5,5.7,94,0.00,,SCT200,0.00,VWS V14.01,2013-07-06 01:09:00,
2013-07-05 21:15:00,78.5,77.0,30.07,West,270,5.4,6.5,95,0.00,,SCT200,0.00,VWS V14.01,2013-07-06 01:15:00,
2013-07-05 21:21:00,78.4,77.0,30.08,NW,315,3.2,9.3,96,0.00,,SCT200,0.00,VWS V14.01,2013-07-06 01:21:00,
2013-07-05 21:27:00,78.3,77.0,30.07,WNW,294,4.4,5.0,96,0.00,,SCT200,0.00,VWS V14.01,2013-07-06 01:27:00,
2013-07-05 21:33:00,78.2,77.0,30.08,NNW,332,5.6,12.1,96,0.00,,SCT200,0.00,VWS V14.01,2013-07-06 01:33:00,
2013-07-05 21:39:00,78.1,77.0,30.08,NW,304,9.3,9.3,96,0.00,,SCT200,0.00,VWS V14.01,2013-07-06 01:39:00,
2013-07-05 21:45:00,78.0,77.0,30.08,NW,316,7.2,7.3,97,0.00,,SCT200,0.00,VWS V14.01,2013-07-06 01:45:00,
2013-07-05 21:51:00,77.9,76.9,30.08,WSW,238,3.9,8.9,97,0.00,,SCT200,0.00,VWS V14.01,2013-07-06 01:51:00,
2013-07-05 21:57:00,77.7,76.9,30.08,West,274,6.5,9.6,97,0.00,,SCT200,0.00,VWS V14.01,2013-07-06 01:57:00,
2013-07-05 22:03:00,77.5,76.8,30.08,NW,314,4.2,8.9,98,0.00,,SCT200,0.00,VWS V14.01,2013-07-06 02:03:00,
2013-07-05 22:09:00,77.4,76.8,30.08,WSW,252,3.3,6.2,98,0.00,,SCT200,0.00,VWS V14.01,2013-07-06 02:09:00,
2013-07-05 22:15:00,77.3,76.8,30.08,West,266,5.4,6.1,98,0.00,,SCT200,0.00,VWS V14.01,2013-07-06 02:15:00,
2013-07-05 22:21:00,77.3,76.8,30.08,WNW,297,4.7,7.4,98,0.00,,SCT200,0.00,VWS V14.01,2013-07-06 02:21:00,
2013-07-05 22:27:00,77.1,76.7,30.08,NW,314,5.4,5.4,99,0.00,,SCT200,0.00,VWS V14.01,2013-07-06 02:27:00,
2013-07-05 22:33:00,76.8,76.4,30.07,WNW,300,3.6,5.2,99,0.00,,SCT200,0.00,VWS V14.01,2013-07-06 02:33:00,
2013-07-05 22:39:00,76.9,76.6,30.07,WNW,292,5.2,6.2,99,0.00,,SCT200,0.00,VWS V14.01,2013-07-06 02:39:00,
2013-07-05 22:45:00,76.7,76.4,30.07,WNW,300,2.5,8.9,99,0.00,,SCT200,0.00,VWS V14.01,2013-07-06 02:45:00,
2013-07-05 22:51:00,76.7,76.4,30.07,SSW,212,3.8,6.5,99,0.00,,SCT200,0.00,VWS V14.01,2013-07-06 02:51:00,
2013-07-05 22:57:00,76.4,76.2,30.07,SSW,212,4.2,6.4,99,0.00,,SCT200,0.00,VWS V14.01,2013-07-06 02:57:00,
2013-07-05 23:03:00,76.4,76.0,30.07,NW,322,4.1,8.2,99,0.00,,SCT200,0.00,VWS V14.01,2013-07-06 03:03:00,
2013-07-05 23:09:00,76.4,76.0,30.07,SSW,205,4.5,11.1,99,0.00,,SCT200,0.00,VWS V14.01,2013-07-06 03:09:00,
2013-07-05 23:15:00,76.3,76.0,30.07,SW,235,3.6,6.4,99,0.00,,SCT200,0.00,VWS V14.01,2013-07-06 03:15:00,
2013-07-05 23:21:00,76.0,75.7,30.07,West,280,5.2,5.5,99,0.00,,SCT200,0.00,VWS V14.01,2013-07-06 03:21:00,
2013-07-05 23:27:00,76.0,75.8,30.07,North,4,3.2,5.9,99,0.00,,SCT200,0.00,VWS V14.01,2013-07-06 03:27:00,
2013-07-05 23:29:00,76.1,75.7,30.07,West,276,6.0,7.2,99,0.00,,SCT200,0.00,VWS V14.01,2013-07-06 03:29:00,
2013-07-05 23:35:00,76.0,75.7,30.07,NW,315,5.6,7.2,99,0.00,,SCT200,0.00,VWS V14.01,2013-07-06 03:35:00,
2013-07-05 23:41:00,75.7,75.4,30.07,NNW,335,3.5,5.4,99,0.00,,SCT200,0.00,VWS V14.01,2013-07-06 03:41:00,
2013-07-05 23:47:00,75.6,75.3,30.07,WNW,287,4.1,4.5,99,0.00,,SCT200,0.00,VWS V14.01,2013-07-06 03:47:00,
2013-07-05 23:53:00,75.4,75.2,30.07,NW,326,6.8,9.9,99,0.00,,SCT200,0.00,VWS V14.01,2013-07-06 03:53:00,